Location: El Centro
(32.7920°N, 115.5620°W)
Time: 13:27:40
(UTC-07:00)

Amateur Radio Satellites - All Passes

Search period start: 28 September 2016 12:57
Search period end: 29 September 2016 12:57
Location: El Centro, 32.7920°N, 115.5620°W

Satellite Date Start Highest point End Downlink Frequencies (MHz)
Time Altitude Azimuth
50 SAT 28 Sep 12:58:31 13:01:59 41° 285° (WNW) 13:05:25 437.505
AIST 2 28 Sep 13:01:04 13:05:18 89° 92° (E) 13:09:29 435.215
Oscar 19 28 Sep 13:08:35 13:13:39 57° 74° (ENE) 13:18:45 437.125/150
TISAT 1 28 Sep 13:09:10 13:11:51 17° 95° (E) 13:14:33 437.305
M-CUBED/EXP-1 PRIME 28 Sep 13:11:11 13:14:24 59° 288° (WNW) 13:17:39 437.505
PCSat 28 Sep 13:14:50 13:19:42 33° 58° (ENE) 13:24:32 145.827
JAS-2 28 Sep 13:16:01 13:20:45 22° 269° (W) 13:25:55 435.910
SPROUT 28 Sep 13:25:46 13:29:49 44° 286° (WNW) 13:33:52 437.525
PHONESAT 2.4 28 Sep 13:27:01 13:29:13 19° 6° (N) 13:31:25 2401.200-2431.200
AISAT 28 Sep 13:39:12 13:42:06 18° 292° (WNW) 13:45:00 437.250
UKube-1 28 Sep 13:41:22 13:45:18 35° 288° (WNW) 13:49:13 .
AO-7 28 Sep 13:58:55 14:04:37 21° 58° (ENE) 14:10:17 29.400- 29.500
SWISSCUBE 28 Sep 13:59:51 14:02:08 13° 93° (E) 14:04:23 437.505
ITAMSAT 1 28 Sep 14:04:28 14:08:27 23° 68° (ENE) 14:12:27 435.822/435.867
AUBIESAT-1 28 Sep 14:09:11 14:10:37 12° 295° (WNW) 14:12:03 437.475
Gurwin Techsat 1B 28 Sep 14:11:40 14:16:58 75° 258° (WSW) 14:22:17 435.225
BEESAT 28 Sep 14:12:06 14:15:06 16° 95° (E) 14:18:06 436.000
DX 1 28 Sep 14:13:08 14:15:00 13° 294° (WNW) 14:16:51 434.975-435.025
Cosmos 2491 28 Sep 14:18:50 14:27:06 48° 89° (E) 14:35:25 435.465 / 435.565
SO-50 28 Sep 14:20:50 14:25:24 42° 114° (ESE) 14:29:56 436.795
YUBILEINY 28 Sep 14:28:46 14:37:31 88° 84° (E) 14:46:13 435.215
TISAT 1 28 Sep 14:43:52 14:47:30 30° 288° (WNW) 14:51:08 437.305
Oscar 19 28 Sep 14:50:47 14:53:15 13° 267° (W) 14:55:43 437.125/150
Cosmos 2504 28 Sep 14:54:14 15:01:31 50° 80° (E) 15:09:17 435.465 / 435.565
PCSat 28 Sep 14:58:25 15:02:55 27° 253° (WSW) 15:07:23 145.827
PHONESAT 2.4 28 Sep 15:02:50 15:05:43 49° 22° (NNE) 15:08:36 2401.200-2431.200
ITUPSAT 1 28 Sep 15:22:39 15:27:28 80° 284° (WNW) 15:32:17 437.325
MOZHAYETS 4 28 Sep 15:31:32 15:34:53 19° 95° (E) 15:38:13
SWISSCUBE 28 Sep 15:35:29 15:40:07 50° 286° (WNW) 15:44:44 437.505
ITAMSAT 1 28 Sep 15:43:02 15:47:40 34° 262° (W) 15:52:22 435.822/435.867
AIST 1 28 Sep 15:44:35 15:47:52 21° 77° (ENE) 15:51:07
AO-7 28 Sep 15:48:09 15:56:29 77° 254° (WSW) 16:04:49 29.400- 29.500
BEESAT 28 Sep 15:48:31 15:52:59 40° 288° (WNW) 15:57:26 436.000
KKS-1 28 Sep 15:51:30 15:54:36 19° 95° (E) 15:57:41 437.445
SO-50 28 Sep 16:02:29 16:06:01 20° 308° (NW) 16:09:32 436.795
HORYU 2 28 Sep 16:06:11 16:08:41 15° 67° (ENE) 16:11:10 437.375
O/OREOS (USA 219) 28 Sep 16:06:37 16:08:41 13° 59° (ENE) 16:10:44 437.305
Cosmos 2491 28 Sep 16:16:34 16:24:04 31° 286° (WNW) 16:31:40 435.465 / 435.565
STARS 28 Sep 16:22:55 16:26:04 19° 96° (E) 16:29:12 437.465
YUBILEINY 28 Sep 16:29:02 16:33:01 14° 281° (W) 16:37:01 435.215
BRITE-PL 28 Sep 16:29:07 16:33:08 20° 68° (ENE) 16:37:06 437.365/2234.400
PHONESAT 2.4 28 Sep 16:39:23 16:41:40 20° 216° (SW) 16:43:56 2401.200-2431.200
Cosmos 2504 28 Sep 16:48:31 16:54:27 26° 274° (W) 17:00:43 435.465 / 435.565
CUBESAT XI-V 28 Sep 16:53:30 16:56:47 19° 94° (E) 17:00:01 437.345
NOAA 18 28 Sep 17:00:08 17:01:36 11° 62° (ENE) 17:03:03 137.9125
MOZHAYETS 4 28 Sep 17:07:55 17:12:02 32° 288° (WNW) 17:16:08
AIST 1 28 Sep 17:22:01 17:25:20 22° 271° (W) 17:28:37
KKS-1 28 Sep 17:27:17 17:31:08 30° 289° (WNW) 17:35:00 437.445
NOAA 15 28 Sep 17:29:09 17:33:53 34° 70° (ENE) 17:38:38 137.62
HORYU 2 28 Sep 17:40:45 17:44:51 39° 261° (W) 17:49:00 437.375
O/OREOS (USA 219) 28 Sep 17:43:55 17:48:23 52° 254° (WSW) 17:52:49 437.305
CUTE-I 28 Sep 17:48:02 17:52:59 42° 72° (ENE) 17:57:57 437.470
Cubesat XI-IV 28 Sep 17:48:10 17:53:07 41° 72° (ENE) 17:58:05 437.490
AO-7 28 Sep 17:48:49 17:50:13 10° 269° (W) 17:51:37 29.400- 29.500
GOMX 1 28 Sep 17:50:55 17:56:11 53° 75° (ENE) 18:01:15 467.674
STARS 28 Sep 17:58:38 18:02:22 28° 289° (WNW) 18:06:06 437.465
HO-68 28 Sep 18:00:25 18:02:02 11° 56° (NE) 18:03:39 435.675
LilacSat-2 28 Sep 18:03:36 18:07:16 56° 76° (ENE) 18:10:58 437.200
BRITE-PL 28 Sep 18:05:42 18:11:10 49° 261° (W) 18:16:37 437.365/2234.400
DOVE 4 28 Sep 18:08:48 18:13:17 33° 73° (ENE) 18:17:35 437.250
JUGNU 28 Sep 18:19:00 18:20:37 11° 163° (SSE) 18:22:15 437.505
CUBESAT XI-V 28 Sep 18:29:58 18:34:10 33° 288° (WNW) 18:38:20 437.345
NOAA 18 28 Sep 18:36:02 18:41:30 81° 256° (WSW) 18:46:59 137.9125
RS-15 28 Sep 18:39:17 18:49:32 40° 106° (ESE) 19:00:14 29.354- 29.394
CUSAT 1 28 Sep 18:50:06 18:55:56 65° 93° (E) 19:03:13 437.405
DANDE 28 Sep 18:50:16 18:53:44 19° 81° (E) 18:57:50 436.750
GONETS M04 28 Sep 18:52:00 18:59:22 29° 74° (ENE) 19:06:37
NOAA 15 28 Sep 19:09:26 19:13:38 24° 264° (W) 19:17:52 137.62
ISS 28 Sep 19:10:35 19:13:45 55° 133° (SE) 19:16:56 145.825
CINEMA 3 28 Sep 19:14:26 19:18:37 39° 74° (ENE) 19:22:40 145.822/145.860
CUTE 1.7 + AOD 2 28 Sep 19:15:47 19:19:20 27° 72° (ENE) 19:22:55 437.475
SEEDS 28 Sep 19:16:15 19:19:09 18° 70° (ENE) 19:22:02 437.485
CANX-2 28 Sep 19:16:59 19:20:44 32° 73° (ENE) 19:24:33 2200.000
CUTE-I 28 Sep 19:29:27 19:33:08 19° 265° (W) 19:36:51 437.470
Cubesat XI-IV 28 Sep 19:29:34 19:33:17 19° 265° (W) 19:37:02 437.490
GOMX 1 28 Sep 19:31:16 19:34:23 15° 267° (W) 19:37:28 467.674
AAUSAT CUBESAT 2 28 Sep 19:36:26 19:39:00 16° 69° (ENE) 19:41:35 437.432
HO-68 28 Sep 19:41:23 19:48:31 73° 73° (ENE) 19:55:40 435.675
DOVE 4 28 Sep 19:47:03 19:50:55 22° 264° (W) 19:54:40 437.250
STRAND 1 28 Sep 19:54:16 19:59:26 71° 102° (ESE) 20:04:33 437.568
Cosmos 2499 28 Sep 19:54:37 20:02:16 65° 82° (E) 20:10:31 435.465 / 435.565
AO-85 28 Sep 20:01:19 20:06:15 40° 113° (ESE) 20:10:58 145.980
JUGNU 28 Sep 20:04:46 20:08:59 20° 172° (S) 20:13:10 437.505
CUBEBUG 2 28 Sep 20:15:32 20:19:36 48° 75° (ENE) 20:23:36 437.445
FUNcube-1 28 Sep 20:17:30 20:20:12 17° 70° (ENE) 20:22:53 145.935
COMPASS 1 28 Sep 20:19:53 20:24:02 76° 77° (ENE) 20:28:14 437.405
DANDE 28 Sep 20:31:05 20:35:44 42° 286° (WNW) 20:41:51 436.750
UWE-3 28 Sep 20:31:35 20:35:35 47° 75° (ENE) 20:39:34 435.000/436.395/437.385
CUSAT 1 28 Sep 20:34:24 20:38:44 19° 294° (WNW) 20:43:38 437.405
GONETS M04 28 Sep 20:48:00 20:56:24 51° 270° (W) 21:04:43
DELFI C3 28 Sep 20:48:15 20:50:32 15° 69° (ENE) 20:52:51 145.870
ISS 28 Sep 20:48:41 20:50:28 14° 328° (NNW) 20:52:15 145.825
RS-15 28 Sep 20:50:21 21:01:32 53° 306° (NW) 21:13:23 29.354- 29.394
SEEDS 28 Sep 20:50:58 20:54:36 28° 263° (W) 20:58:15 437.485
CUTE 1.7 + AOD 2 28 Sep 20:52:06 20:55:07 19° 265° (W) 20:58:10 437.475
CINEMA 3 28 Sep 20:53:25 20:55:49 14° 266° (W) 20:58:11 145.822/145.860
CANX-2 28 Sep 20:54:05 20:56:38 16° 266° (W) 20:59:13 2200.000
Oscar 11 28 Sep 20:54:27 20:58:38 53° 75° (ENE) 21:02:51 145.826/435.025
ZACube-1 28 Sep 20:58:33 21:02:37 61° 77° (ENE) 21:06:43 437.345
PRISM 28 Sep 21:04:08 21:07:49 31° 98° (E) 21:11:28 437.425
SRMSAT 28 Sep 21:04:38 21:07:15 13° 164° (SSE) 21:09:52 437.500
AAUSAT CUBESAT 2 28 Sep 21:10:28 21:14:10 31° 262° (W) 21:17:55 437.432
HUMSAT D 28 Sep 21:12:02 21:14:09 14° 68° (ENE) 21:16:15 437.325/437.525
HO-68 28 Sep 21:32:34 21:36:43 16° 267° (W) 21:40:54 435.675
STRAND 1 28 Sep 21:36:16 21:37:56 12° 296° (WNW) 21:39:36 437.568
AO-85 28 Sep 21:42:43 21:46:48 23° 306° (NW) 21:50:43 145.980
Cosmos 2499 28 Sep 21:49:32 21:54:43 20° 276° (W) 22:00:11 435.465 / 435.565
UNISAT 6 28 Sep 21:50:28 21:52:35 13° 94° (E) 21:54:43 437.425
FUNcube-1 28 Sep 21:52:37 21:56:11 28° 263° (W) 21:59:47 145.935
JUGNU 28 Sep 21:52:51 21:57:23 23° 182° (S) 22:01:55 437.505
ESTCUBE 1 28 Sep 22:10:42 22:11:30 10° 65° (ENE) 22:12:19 437.505/2401.250
DELFI C3 28 Sep 22:21:30 22:25:03 31° 262° (W) 22:28:39 145.870
ANTELSAT 28 Sep 22:24:07 22:28:09 33° 98° (E) 22:32:16 437.575/2403.000
PRISM 28 Sep 22:40:18 22:42:49 16° 292° (WNW) 22:45:19 437.425
TIGRISAT 28 Sep 22:44:04 22:48:25 55° 100° (E) 22:52:52 435.000
HUMSAT D 28 Sep 22:45:40 22:49:25 35° 262° (W) 22:53:11 437.325/437.525
SRMSAT 28 Sep 22:51:25 22:55:46 21° 174° (S) 23:00:06 437.500
AISAT 28 Sep 22:55:49 22:58:47 18° 69° (ENE) 23:01:45 437.250
SO-50 28 Sep 22:58:20 23:00:16 12° 48° (NE) 23:02:10 436.795
RS-15 28 Sep 23:11:06 23:17:51 16° 334° (NNW) 23:24:45 29.354- 29.394
AUBIESAT-1 28 Sep 23:15:40 23:18:33 19° 67° (ENE) 23:21:19 437.475
NANOSAT C BR1 28 Sep 23:19:56 23:22:16 14° 94° (E) 23:24:35 145.865
BEESAT 3 28 Sep 23:24:56 23:27:09 15° 109° (ESE) 23:29:23 437.485
UNISAT 6 28 Sep 23:25:12 23:29:25 44° 286° (WNW) 23:33:43 437.425
DX 1 28 Sep 23:26:43 23:30:09 23° 70° (ENE) 23:33:36 434.975-435.025
50 SAT 28 Sep 23:30:33 23:33:52 35° 74° (ENE) 23:37:14 437.505
VELOX 1 28 Sep 23:37:45 23:42:04 52° 74° (ENE) 23:46:23 145.980
CUBEBUG 1 28 Sep 23:38:51 23:43:15 72° 76° (ENE) 23:47:39 437.445
JUGNU 28 Sep 23:42:03 23:45:46 17° 192° (SSW) 23:49:29 437.505
QB50P2 28 Sep 23:43:11 23:47:00 33° 98° (E) 23:50:49 145.880/145.840
ESTCUBE 1 28 Sep 23:43:16 23:47:43 61° 259° (W) 23:52:14 437.505/2401.250
POLYITAN 1 28 Sep 23:45:23 23:49:12 33° 98° (E) 23:53:01 437.675
M-CUBED/EXP-1 PRIME 28 Sep 23:52:38 23:56:52 74° 72° (ENE) 00:00:46 437.505
ANTELSAT 29 Sep 00:01:35 00:04:35 18° 291° (WNW) 00:07:38 437.575/2403.000
SPROUT 29 Sep 00:14:17 00:18:32 74° 76° (ENE) 00:22:47 437.525
BUGSAT 1 29 Sep 00:19:25 00:22:48 26° 97° (E) 00:26:11 437.445
DUCHIFAT 1 29 Sep 00:21:20 00:25:31 82° 102° (ESE) 00:29:43 145.980
BEESAT 2 29 Sep 00:21:22 00:24:54 33° 113° (ESE) 00:28:29 435.950
TIGRISAT 29 Sep 00:23:17 00:24:37 11° 293° (WNW) 00:25:58 435.000
QB50P1 29 Sep 00:24:47 00:29:00 77° 282° (WNW) 00:33:12 145.935-145.965
JAS-2 29 Sep 00:27:58 00:35:49 73° 102° (ESE) 00:43:06 435.910
UKube-1 29 Sep 00:30:44 00:35:03 78° 256° (WSW) 00:39:24 .
AISAT 29 Sep 00:30:55 00:34:57 33° 262° (W) 00:38:59 437.250
Cosmos 2491 29 Sep 00:36:18 00:41:59 18° 69° (ENE) 00:47:34 435.465 / 435.565
SO-50 29 Sep 00:36:41 00:41:09 64° 244° (WSW) 00:45:32 436.795
POPSAT HIP 1 29 Sep 00:38:32 00:42:37 52° 285° (WNW) 00:46:43 437.405
SRMSAT 29 Sep 00:39:51 00:44:19 22° 184° (S) 00:48:47 437.500
AUBIESAT-1 29 Sep 00:49:21 00:52:49 26° 257° (WSW) 00:56:07 437.475
NANOSAT C BR1 29 Sep 00:54:14 00:58:03 35° 287° (WNW) 01:01:52 145.865
BEESAT 3 29 Sep 01:00:58 01:04:28 32° 303° (WNW) 01:08:02 437.485
DX 1 29 Sep 01:02:37 01:06:11 24° 263° (W) 01:09:46 434.975-435.025
BEESAT 29 Sep 01:15:40 01:17:29 12° 65° (ENE) 01:19:17 436.000
VELOX 1 29 Sep 01:17:38 01:18:44 11° 267° (W) 01:19:51 145.980
QB50P2 29 Sep 01:19:54 01:22:30 16° 291° (WNW) 01:25:06 145.880/145.840
POLYITAN 1 29 Sep 01:22:06 01:24:42 16° 291° (WNW) 01:27:17 437.675
Oscar 19 29 Sep 01:25:08 01:29:33 28° 97° (E) 01:33:54 437.125/150
TISAT 1 29 Sep 01:30:13 01:34:24 76° 259° (W) 01:38:36 437.305
YUBILEINY 29 Sep 01:30:46 01:36:32 20° 81° (E) 01:42:15 435.215
RS-15 29 Sep 01:34:09 01:38:27 12° 14° (NNE) 01:42:45 29.354- 29.394
ISS 29 Sep 01:43:26 01:44:32 11° 29° (NNE) 01:45:38 145.825
BUGSAT 1 29 Sep 01:55:13 01:57:57 18° 290° (WNW) 02:00:43 437.445
BEESAT 2 29 Sep 02:00:16 02:02:47 16° 308° (NW) 02:05:21 435.950
JAS-2 29 Sep 02:14:30 02:19:54 21° 298° (WNW) 02:25:08 435.910
ITAMSAT 1 29 Sep 02:23:41 02:25:04 11° 92° (E) 02:26:25 435.822/435.867
ITUPSAT 1 29 Sep 02:24:44 02:29:28 71° 75° (ENE) 02:34:14 437.325
SRMSAT 29 Sep 02:29:32 02:32:51 15° 194° (SSW) 02:36:09 437.500
Cosmos 2491 29 Sep 02:30:49 02:39:39 78° 266° (W) 02:48:25 435.465 / 435.565
MOZHAYETS 4 29 Sep 02:31:05 02:32:32 11° 66° (ENE) 02:33:58
Gurwin Techsat 1B 29 Sep 02:32:24 02:37:41 64° 101° (ESE) 02:42:57 435.225
SWISSCUBE 29 Sep 02:37:07 02:41:51 73° 259° (WSW) 02:46:37 437.505
KKS-1 29 Sep 02:47:37 02:48:31 11° 65° (ENE) 02:49:25 437.445
BEESAT 29 Sep 02:50:02 02:54:42 58° 259° (W) 02:59:24 436.000
AIST 2 29 Sep 02:54:12 02:58:10 54° 115° (ESE) 03:02:12 435.215
Oscar 19 29 Sep 03:04:27 03:08:43 27° 291° (WNW) 03:12:58 437.125/150
STARS 29 Sep 03:17:45 03:18:31 10° 66° (ENE) 03:19:18 437.465
ISS 29 Sep 03:18:06 03:21:24 82° 223° (SW) 03:24:41 145.825
YUBILEINY 29 Sep 03:23:36 03:32:21 71° 277° (W) 03:41:08 435.215
Cosmos 2504 29 Sep 03:27:51 03:34:53 46° 90° (E) 03:41:39 435.465 / 435.565
RS-15 29 Sep 03:45:35 03:56:35 35° 46° (NE) 04:07:17 29.354- 29.394
PCSat 29 Sep 03:51:23 03:56:45 74° 113° (ESE) 04:02:10 145.827
CUBESAT XI-V 29 Sep 03:54:11 03:55:49 12° 66° (ENE) 03:57:27 437.345
AO-7 29 Sep 03:54:57 04:02:55 49° 102° (ESE) 04:10:51 29.400- 29.500
ITAMSAT 1 29 Sep 03:59:42 04:04:53 68° 286° (WNW) 04:10:04 435.822/435.867
MOZHAYETS 4 29 Sep 04:04:39 04:09:08 56° 260° (W) 04:13:38
AIST 1 29 Sep 04:09:51 04:12:34 16° 88° (E) 04:15:17
Gurwin Techsat 1B 29 Sep 04:14:33 04:17:02 13° 296° (WNW) 04:19:31 435.225
KKS-1 29 Sep 04:20:08 04:24:31 58° 259° (W) 04:28:55 437.445
Cosmos 2491 29 Sep 04:33:03 04:34:55 11° 283° (WNW) 04:36:48 435.465 / 435.565
AIST 2 29 Sep 04:35:21 04:36:58 12° 311° (NW) 04:38:35 435.215
STARS 29 Sep 04:50:02 04:54:20 57° 259° (W) 04:58:39 437.465
Cosmos 2504 29 Sep 05:22:27 05:28:21 25° 285° (WNW) 05:34:08 435.465 / 435.565
CUBESAT XI-V 29 Sep 05:28:01 05:32:37 58° 260° (W) 05:37:17 437.345
CUSAT 1 29 Sep 05:30:17 05:37:08 38° 73° (ENE) 05:42:46 437.405
YUBILEINY 29 Sep 05:30:36 05:30:42 10° 296° (WNW) 05:30:48 435.215
DANDE 29 Sep 05:32:19 05:38:04 20° 67° (ENE) 05:43:27 436.750
HORYU 2 29 Sep 05:35:36 05:39:57 53° 100° (E) 05:44:19 437.375
PCSat 29 Sep 05:37:57 05:40:42 14° 310° (NW) 05:43:27 145.827
AIST 1 29 Sep 05:45:56 05:49:50 31° 281° (W) 05:53:45
AO-7 29 Sep 05:48:15 05:55:19 33° 298° (WNW) 06:02:22 29.400- 29.500
NOAA 15 29 Sep 05:49:34 05:53:09 18° 95° (E) 05:56:42 137.62
RS-15 29 Sep 05:57:44 06:09:56 69° 248° (WSW) 06:21:43 29.354- 29.394
GOMX 1 29 Sep 05:58:55 06:01:50 18° 94° (E) 06:04:40 467.674
CUTE-I 29 Sep 06:09:58 06:14:16 24° 96° (E) 06:18:33 437.470
Cubesat XI-IV 29 Sep 06:10:18 06:14:36 24° 96° (E) 06:18:52 437.490
O/OREOS (USA 219) 29 Sep 06:12:50 06:16:46 30° 103° (ESE) 06:20:46 437.305
BRITE-PL 29 Sep 06:15:53 06:20:34 85° 102° (ESE) 06:24:54 437.365/2234.400
AO-85 29 Sep 06:17:49 06:21:51 73° 243° (WSW) 06:25:40 145.980
NOAA 18 29 Sep 07:02:35 07:08:01 64° 102° (ESE) 07:13:27 137.9125
STRAND 1 29 Sep 07:05:40 07:10:41 63° 74° (ENE) 07:15:44 437.568
CUSAT 1 29 Sep 07:12:39 07:18:49 31° 274° (W) 07:24:01 437.405
DANDE 29 Sep 07:13:19 07:21:43 78° 265° (W) 07:29:05 436.750
HORYU 2 29 Sep 07:14:26 07:16:00 12° 294° (WNW) 07:17:34 437.375
CINEMA 3 29 Sep 07:15:03 07:16:41 12° 94° (E) 07:18:21 145.822/145.860
LilacSat-2 29 Sep 07:15:15 07:18:57 47° 285° (WNW) 07:22:40 437.200
HO-68 29 Sep 07:16:07 07:20:24 17° 93° (E) 07:24:39 435.675
NOAA 15 29 Sep 07:28:04 07:33:04 44° 288° (WNW) 07:38:01 137.62
GOMX 1 29 Sep 07:36:18 07:39:56 27° 289° (WNW) 07:43:28 467.674
GONETS M04 29 Sep 07:47:02 07:54:57 39° 87° (E) 08:02:53
DOVE 4 29 Sep 07:49:27 07:53:28 49° 285° (WNW) 07:57:28 437.250
CUTE-I 29 Sep 07:49:30 07:54:17 34° 290° (WNW) 07:59:03 437.470
Cubesat XI-IV 29 Sep 07:49:50 07:54:37 34° 290° (WNW) 07:59:24 437.490
PRISM 29 Sep 07:50:40 07:52:42 14° 67° (ENE) 07:54:46 437.425
O/OREOS (USA 219) 29 Sep 07:52:47 07:56:10 20° 297° (WNW) 07:59:35 437.305
COMPASS 1 29 Sep 08:08:14 08:10:58 17° 94° (E) 08:13:41 437.405
CUBEBUG 2 29 Sep 08:11:38 08:14:05 15° 94° (E) 08:16:33 437.445
RS-15 29 Sep 08:17:25 08:20:02 11° 265° (W) 08:22:38 29.354- 29.394
Cosmos 2499 29 Sep 08:26:36 08:33:37 58° 92° (E) 08:40:29 435.465 / 435.565
UWE-3 29 Sep 08:26:36 08:28:56 14° 94° (E) 08:31:16 435.000/436.395/437.385
SEEDS 29 Sep 08:38:28 08:42:42 64° 101° (E) 08:46:54 437.485
CUTE 1.7 + AOD 2 29 Sep 08:39:53 08:44:12 81° 281° (WNW) 08:48:28 437.475
CANX-2 29 Sep 08:41:30 08:45:46 65° 284° (WNW) 08:50:01 2200.000
NOAA 18 29 Sep 08:45:17 08:48:04 14° 296° (WNW) 08:50:53 137.9125
Oscar 11 29 Sep 08:47:34 08:49:53 14° 94° (E) 08:52:10 145.826/435.025
STRAND 1 29 Sep 08:48:40 08:50:12 11° 268° (W) 08:51:44 437.568
CINEMA 3 29 Sep 08:49:59 08:53:57 41° 286° (WNW) 08:58:01 145.822/145.860
ZACube-1 29 Sep 08:51:55 08:54:50 17° 95° (E) 08:57:46 437.345
AAUSAT CUBESAT 2 29 Sep 08:56:33 09:00:39 52° 100° (E) 09:04:43 437.432
DANDE 29 Sep 09:00:10 09:02:57 12° 282° (WNW) 09:05:39 436.750
HO-68 29 Sep 09:01:27 09:08:34 72° 288° (WNW) 09:15:40 435.675
PHONESAT 2.4 29 Sep 09:02:07 09:04:50 37° 148° (SSE) 09:07:34 2401.200-2431.200
ANTELSAT 29 Sep 09:19:53 09:22:36 17° 69° (ENE) 09:25:19 437.575/2403.000
BEESAT 3 29 Sep 09:21:51 09:25:26 31° 57° (ENE) 09:28:59 437.485
PRISM 29 Sep 09:23:43 09:27:37 39° 261° (W) 09:31:33 437.425
TIGRISAT 29 Sep 09:39:00 09:42:33 26° 72° (ENE) 09:46:06 435.000
COMPASS 1 29 Sep 09:42:49 09:46:31 30° 288° (WNW) 09:50:11 437.405
GONETS M04 29 Sep 09:43:32 09:51:35 39° 283° (WNW) 09:59:44
FUNcube-1 29 Sep 09:43:49 09:48:11 69° 101° (E) 09:52:38 145.935
CUBEBUG 2 29 Sep 09:46:45 09:50:45 37° 286° (WNW) 09:54:52 437.445
UWE-3 29 Sep 10:01:23 10:05:27 40° 286° (WNW) 10:09:37 435.000/436.395/437.385
DELFI C3 29 Sep 10:02:55 10:06:44 42° 99° (E) 10:10:30 145.870
UNISAT 6 29 Sep 10:19:21 10:23:38 88° 267° (W) 10:27:53 437.425
BEESAT 2 29 Sep 10:20:26 10:24:27 74° 63° (ENE) 10:28:26 435.950
Oscar 11 29 Sep 10:22:04 10:26:06 38° 286° (WNW) 10:30:08 145.826/435.025
Cosmos 2499 29 Sep 10:22:17 10:27:05 19° 288° (WNW) 10:31:52 435.465 / 435.565
ZACube-1 29 Sep 10:27:12 10:31:06 32° 287° (WNW) 10:35:04 437.345
HUMSAT D 29 Sep 10:32:50 10:36:57 47° 99° (E) 10:41:05 437.325/437.525
QB50P2 29 Sep 10:32:51 10:35:10 15° 68° (ENE) 10:37:28 145.880/145.840
POLYITAN 1 29 Sep 10:35:03 10:37:21 15° 68° (ENE) 10:39:40 437.675
AAUSAT CUBESAT 2 29 Sep 10:35:06 10:35:37 10° 293° (WNW) 10:36:07 437.432
JAS-2 29 Sep 10:36:31 10:41:05 20° 61° (ENE) 10:45:58 435.910
PHONESAT 2.4 29 Sep 10:38:17 10:40:57 32° 342° (NNW) 10:43:38 2401.200-2431.200
HO-68 29 Sep 10:53:51 10:55:02 10° 304° (NW) 10:56:13 435.675
ANTELSAT 29 Sep 10:55:14 10:59:03 31° 262° (W) 11:02:50 437.575/2403.000
BEESAT 3 29 Sep 11:00:21 11:02:47 16° 251° (WSW) 11:05:12 437.485
BUGSAT 1 29 Sep 11:07:18 11:08:15 11° 67° (ENE) 11:09:12 437.445
DUCHIFAT 1 29 Sep 11:08:57 11:12:38 31° 73° (ENE) 11:16:21 145.980
QB50P1 29 Sep 11:12:43 11:16:39 41° 74° (ENE) 11:20:36 145.935-145.965
TIGRISAT 29 Sep 11:16:07 11:19:12 19° 265° (W) 11:22:16 435.000
AIST 2 29 Sep 11:21:45 11:23:01 11° 49° (NE) 11:24:16 435.215
POPSAT HIP 1 29 Sep 11:26:12 11:30:20 61° 76° (ENE) 11:34:28 437.405
CUBEBUG 1 29 Sep 11:32:55 11:35:54 18° 95° (E) 11:38:52 437.445
VELOX 1 29 Sep 11:33:54 11:36:07 14° 94° (E) 11:38:20 145.980
DELFI C3 29 Sep 11:39:50 11:41:08 11° 292° (WNW) 11:42:25 145.870
ESTCUBE 1 29 Sep 11:40:17 11:44:31 38° 99° (E) 11:48:43 437.505/2401.250
NANOSAT C BR1 29 Sep 11:41:13 11:45:25 89° 252° (WSW) 11:49:37 145.865
SPROUT 29 Sep 12:05:37 12:08:28 17° 95° (E) 12:11:17 437.525
QB50P2 29 Sep 12:06:44 12:10:37 36° 262° (W) 12:14:29 145.880/145.840
POLYITAN 1 29 Sep 12:08:57 12:12:48 36° 261° (W) 12:16:41 437.675
HUMSAT D 29 Sep 12:10:31 12:12:06 12° 293° (WNW) 12:13:43 437.325/437.525
PHONESAT 2.4 29 Sep 12:15:28 12:17:34 17° 359° (N) 12:19:39 2401.200-2431.200
JAS-2 29 Sep 12:19:01 12:25:16 64° 260° (W) 12:32:23 435.910
UKube-1 29 Sep 12:22:49 12:26:17 23° 97° (E) 12:29:43 .
AISAT 29 Sep 12:24:56 12:29:18 63° 102° (ESE) 12:33:37 437.250
AUBIESAT-1 29 Sep 12:31:50 12:34:29 22° 102° (ESE) 12:37:11 437.475
50 SAT 29 Sep 12:35:25 12:39:06 87° 103° (ESE) 12:42:44 437.505
Oscar 19 29 Sep 12:37:44 12:42:04 27° 69° (ENE) 12:46:23 437.125/150
BUGSAT 1 29 Sep 12:39:12 12:43:10 47° 260° (W) 12:47:07 437.445
PCSat 29 Sep 12:44:24 12:48:44 24° 55° (NE) 12:53:02 145.827
DUCHIFAT 1 29 Sep 12:45:49 12:48:21 16° 265° (W) 12:50:53 145.980
QB50P1 29 Sep 12:50:57 12:52:34 12° 267° (W) 12:54:12 145.935-145.965
